Location: Bastelaar
(51.0950°N, 3.8602°E)
Time: 17:31:36
(UTC+00:00)

COSMO-SKYMED 1 - Pass Details

Date: 18 November 2025
Orbit: 579 x 581 km, 97.9° (Epoch: 09 December)

Event Time Altitude Azimuth Distance (km) Brightness Sun altitude
Exits shadow 17:26:36 25° 82° (E) 1,203 3.4 -14.5°
Maximum altitude 17:27:06 25° 94° (E) 1,183 3.4 -14.6°
Drops below altitude 10° 17:30:32 10° 151° (SSE) 1,893 4.9 -15.1°
Sets 17:32:58 0° 164° (SSE) 2,786 5.9 -15.5°
